Location: Unspecified
(41.1637°N, 24.2901°E)
Time: 12:00:45
(UTC+02:00)

ISS - Pass Details

Date: 09 May 2026
Orbit: 414 x 424 km, 51.6° (Epoch: 12 May)

Event Time Altitude Azimuth Distance (km) Brightness Sun altitude
Rises 20:04:27 0° 214° (SW) 2,335 0.1 -6.9°
Reaches altitude 10° 20:06:37 10° 206° (SSW) 1,477 -1.0 -7.2°
Maximum altitude 20:09:42 37° 137° (SE) 656 -3.3 -7.7°
Drops below altitude 10° 20:12:49 10° 68° (ENE) 1,487 -1.3 -8.2°
Sets 20:15:00 0° 60° (ENE) 2,354 -0.2 -8.6°
